GLO1919 SBCF-SBMO

Flight info

Callsign GLO1919
Flight time N/A
Altitude 37000
Route ILPIR UZ23 ANDIG
Aircraft B738/M-SDE2E3FGHIRWXY/LB1

Departure

Time 2026-04-29 12:35
Airport Tancredo Neves International Airport (SBCF)

Arrival

Time N/A
Airport Zumbi dos Palmares International Airport (SBMO)
Time Latitude Longitude Altitude Speed Heading
2026-04-29 12:06 -19.62953 -43.96723 2795 ft 0 kts 51°
2026-04-29 12:26 -19.62954 -43.96723 2797 ft 2 kts 51°
2026-04-29 12:27 -19.62971 -43.96743 2800 ft 4 kts 36°
2026-04-29 12:27 -19.62994 -43.96755 2800 ft 4 kts
2026-04-29 12:27 -19.63014 -43.96750 2797 ft 1 kts 319°
2026-04-29 12:30 -19.63012 -43.96752 2797 ft 2 kts 319°
2026-04-29 12:31 -19.62983 -43.96778 2797 ft 8 kts 319°
2026-04-29 12:31 -19.62927 -43.96829 2797 ft 13 kts 319°
2026-04-29 12:31 -19.62849 -43.96899 2798 ft 17 kts 320°
2026-04-29 12:31 -19.62783 -43.96981 2800 ft 15 kts 280°
2026-04-29 12:32 -19.62818 -43.97077 2798 ft 14 kts 227°
2026-04-29 12:32 -19.62816 -43.97162 2799 ft 14 kts 320°
2026-04-29 12:32 -19.62728 -43.97242 2798 ft 20 kts 319°
2026-04-29 12:32 -19.62607 -43.97354 2798 ft 26 kts 319°
2026-04-29 12:33 -19.62456 -43.97494 2798 ft 31 kts 319°
2026-04-29 12:33 -19.62339 -43.97602 2798 ft 16 kts 319°
2026-04-29 12:33 -19.62273 -43.97682 2798 ft 5 kts 274°
2026-04-29 12:33 -19.62297 -43.97714 2799 ft 7 kts 225°
2026-04-29 12:34 -19.62344 -43.97764 2797 ft 14 kts 225°
2026-04-29 12:34 -19.62446 -43.97732 2796 ft 22 kts 138°
2026-04-29 12:34 -19.62683 -43.97511 2796 ft 77 kts 139°
2026-04-29 12:34 -19.63237 -43.96997 2797 ft 133 kts 138°
2026-04-29 12:35 -19.64045 -43.96231 2842 ft 175 kts 137°
2026-04-29 12:35 -19.64995 -43.95360 3403 ft 179 kts 138°
2026-04-29 12:35 -19.65959 -43.94486 4063 ft 188 kts 137°
2026-04-29 12:35 -19.67013 -43.93529 4479 ft 211 kts 137°
2026-04-29 12:36 -19.68191 -43.92459 4720 ft 234 kts 135°
2026-04-29 12:36 -19.69350 -43.91125 4916 ft 258 kts 116°
2026-04-29 12:36 -19.69663 -43.89276 5538 ft 260 kts 79°
2026-04-29 12:36 -19.68956 -43.87497 6221 ft 267 kts 60°
2026-04-29 12:37 -19.68025 -43.85771 6959 ft 271 kts 62°
2026-04-29 12:37 -19.67139 -43.84028 7638 ft 274 kts 63°
2026-04-29 12:37 -19.66271 -43.82221 8394 ft 275 kts 64°
2026-04-29 12:37 -19.65416 -43.80362 8857 ft 277 kts 65°
2026-04-29 12:38 -19.64595 -43.78513 9209 ft 279 kts 66°
2026-04-29 12:38 -19.63775 -43.76640 9207 ft 285 kts 66°
2026-04-29 12:38 -19.62943 -43.74726 9202 ft 285 kts 66°
2026-04-29 12:38 -19.62103 -43.72798 9232 ft 285 kts 65°
2026-04-29 12:39 -19.61036 -43.71053 9522 ft 287 kts 51°
2026-04-29 12:39 -19.59739 -43.69440 10088 ft 286 kts 51°
2026-04-29 12:39 -19.58449 -43.67829 10149 ft 285 kts 51°
2026-04-29 12:39 -19.57180 -43.66229 10186 ft 285 kts 51°
2026-04-29 12:40 -19.55904 -43.64602 10192 ft 289 kts 51°
2026-04-29 12:40 -19.54615 -43.62948 10176 ft 292 kts 51°
2026-04-29 12:40 -19.53324 -43.61289 10186 ft 290 kts 51°
2026-04-29 12:40 -19.52045 -43.59645 10178 ft 287 kts 51°
2026-04-29 12:41 -19.50654 -43.58138 10184 ft 286 kts 38°
2026-04-29 12:41 -19.48969 -43.56952 10324 ft 300 kts 34°
2026-04-29 12:41 -19.47142 -43.55723 10496 ft 321 kts 33°
2026-04-29 12:41 -19.45207 -43.54420 10822 ft 334 kts 33°
2026-04-29 12:42 -19.43233 -43.53080 11386 ft 337 kts 33°
2026-04-29 12:42 -19.41270 -43.51735 12094 ft 338 kts 33°
2026-04-29 12:42 -19.39283 -43.50364 12710 ft 342 kts 33°
2026-04-29 12:42 -19.37280 -43.48979 13370 ft 345 kts 33°
2026-04-29 12:43 -19.35250 -43.47574 13888 ft 352 kts 32°
2026-04-29 12:43 -19.33192 -43.46151 14470 ft 354 kts 32°
2026-04-29 12:43 -19.31129 -43.44721 15065 ft 356 kts 33°
2026-04-29 12:43 -19.29088 -43.43198 15590 ft 361 kts 35°
2026-04-29 12:44 -19.27063 -43.41595 16082 ft 367 kts 36°
2026-04-29 12:44 -19.25021 -43.39950 16613 ft 371 kts 36°
2026-04-29 12:44 -19.22961 -43.38288 17174 ft 374 kts 37°
2026-04-29 12:44 -19.20883 -43.36619 17720 ft 377 kts 36°
2026-04-29 12:45 -19.18782 -43.34939 18231 ft 381 kts 36°
2026-04-29 12:45 -19.16655 -43.33244 18702 ft 384 kts 36°
2026-04-29 12:45 -19.14511 -43.31541 19185 ft 386 kts 36°
2026-04-29 12:45 -19.12358 -43.29833 19675 ft 388 kts 36°
2026-04-29 12:46 -19.10191 -43.28115 20161 ft 390 kts 36°
2026-04-29 12:46 -19.08011 -43.26389 20618 ft 393 kts 35°
2026-04-29 12:46 -19.05820 -43.24654 21078 ft 395 kts 35°
2026-04-29 12:46 -19.03611 -43.22906 21532 ft 398 kts 35°
2026-04-29 12:47 -19.01391 -43.21149 21979 ft 400 kts 35°
2026-04-29 12:47 -18.99157 -43.19381 22420 ft 403 kts 35°
2026-04-29 12:47 -18.96907 -43.17603 22862 ft 405 kts 35°
2026-04-29 12:47 -18.94644 -43.15813 23292 ft 408 kts 34°
2026-04-29 12:48 -18.92398 -43.14038 23727 ft 410 kts 34°
2026-04-29 12:48 -18.90109 -43.12230 24070 ft 412 kts 34°
2026-04-29 12:48 -18.87801 -43.10406 24382 ft 416 kts 34°
2026-04-29 12:48 -18.85478 -43.08572 24701 ft 418 kts 35°
2026-04-29 12:49 -18.83143 -43.06729 25040 ft 421 kts 35°
2026-04-29 12:49 -18.80788 -43.04870 25369 ft 423 kts 35°
2026-04-29 12:49 -18.78424 -43.03006 25692 ft 426 kts 35°
2026-04-29 12:49 -18.76040 -43.01129 25976 ft 429 kts 35°
2026-04-29 12:50 -18.73642 -42.99240 26279 ft 432 kts 35°
2026-04-29 12:50 -18.71229 -42.97341 26595 ft 434 kts 35°
2026-04-29 12:50 -18.68802 -42.95430 26895 ft 437 kts 35°
2026-04-29 12:50 -18.66359 -42.93507 27194 ft 439 kts 35°
2026-04-29 12:51 -18.63904 -42.91575 27487 ft 442 kts 35°
2026-04-29 12:51 -18.61432 -42.89630 27774 ft 444 kts 35°
2026-04-29 12:51 -18.58949 -42.87677 28084 ft 446 kts 35°
2026-04-29 12:51 -18.56455 -42.85717 28364 ft 448 kts 35°
2026-04-29 12:52 -18.53946 -42.83746 28625 ft 451 kts 35°
2026-04-29 12:52 -18.51451 -42.81785 28885 ft 454 kts 36°
2026-04-29 12:52 -18.48878 -42.79765 29116 ft 457 kts 35°
2026-04-29 12:52 -18.46355 -42.77783 29368 ft 460 kts 35°
2026-04-29 12:53 -18.43754 -42.75740 29635 ft 462 kts 35°
2026-04-29 12:53 -18.41170 -42.73711 29874 ft 464 kts 36°
2026-04-29 12:53 -18.38609 -42.71700 30106 ft 467 kts 36°
2026-04-29 12:53 -18.36001 -42.69653 30315 ft 469 kts 36°
2026-04-29 12:54 -18.33377 -42.67596 30505 ft 471 kts 35°
2026-04-29 12:54 -18.30746 -42.65532 30709 ft 473 kts 36°
2026-04-29 12:54 -18.28161 -42.63506 30942 ft 474 kts 35°
2026-04-29 12:54 -18.25457 -42.61388 31200 ft 474 kts 36°
2026-04-29 12:55 -18.22813 -42.59316 31482 ft 474 kts 36°
2026-04-29 12:55 -18.20171 -42.57247 31758 ft 474 kts 36°
2026-04-29 12:55 -18.17524 -42.55175 32027 ft 474 kts 36°
2026-04-29 12:55 -18.14880 -42.53106 32305 ft 474 kts 36°
2026-04-29 12:56 -18.12233 -42.51036 32600 ft 474 kts 36°
2026-04-29 12:56 -18.09591 -42.48971 32896 ft 473 kts 36°
2026-04-29 12:56 -18.06947 -42.46904 33186 ft 473 kts 36°
2026-04-29 12:56 -18.04307 -42.44843 33493 ft 473 kts 36°
2026-04-29 12:57 -18.01669 -42.42783 33785 ft 472 kts 36°
2026-04-29 12:57 -17.99033 -42.40725 34073 ft 472 kts 36°
2026-04-29 12:57 -17.96393 -42.38665 34302 ft 473 kts 37°
2026-04-29 12:57 -17.93759 -42.36611 34550 ft 472 kts 37°
2026-04-29 12:58 -17.91126 -42.34558 34851 ft 470 kts 37°
2026-04-29 12:58 -17.88506 -42.32517 35144 ft 469 kts 37°
2026-04-29 12:58 -17.85887 -42.30476 35384 ft 469 kts 37°
2026-04-29 12:58 -17.83266 -42.28435 35627 ft 468 kts 36°
2026-04-29 12:59 -17.80653 -42.26401 35882 ft 468 kts 36°
2026-04-29 12:59 -17.78044 -42.24371 36144 ft 466 kts 37°
2026-04-29 12:59 -17.75440 -42.22345 36386 ft 466 kts 37°
2026-04-29 12:59 -17.72838 -42.20321 36627 ft 465 kts 37°
2026-04-29 13:00 -17.70238 -42.18301 36832 ft 465 kts 37°
2026-04-29 13:00 -17.67639 -42.16280 37040 ft 465 kts 37°
2026-04-29 13:00 -17.65044 -42.14265 37179 ft 464 kts 37°
2026-04-29 13:01 -17.59879 -42.10254 37181 ft 465 kts 37°
2026-04-29 13:01 -17.54680 -42.06221 37176 ft 465 kts 37°
2026-04-29 13:02 -17.49491 -42.02197 37176 ft 464 kts 37°
2026-04-29 13:02 -17.44311 -41.98184 37172 ft 463 kts 37°
2026-04-29 13:03 -17.39136 -41.94174 37170 ft 462 kts 37°
2026-04-29 13:03 -17.33969 -41.90171 37173 ft 462 kts 37°
2026-04-29 13:04 -17.28804 -41.86171 37167 ft 462 kts 37°
2026-04-29 13:04 -17.23636 -41.82172 37168 ft 462 kts 37°
2026-04-29 13:05 -17.18466 -41.78175 37169 ft 462 kts 37°
2026-04-29 13:05 -17.13296 -41.74180 37167 ft 462 kts 37°
2026-04-29 13:06 -17.08118 -41.70182 37165 ft 463 kts 37°
2026-04-29 13:06 -17.02936 -41.66183 37161 ft 463 kts 37°
2026-04-29 13:07 -16.97751 -41.62185 37165 ft 463 kts 37°
2026-04-29 13:07 -16.92560 -41.58185 37162 ft 464 kts 37°
2026-04-29 13:08 -16.87369 -41.54188 37158 ft 464 kts 37°
2026-04-29 13:08 -16.82175 -41.50192 37159 ft 463 kts 37°
2026-04-29 13:09 -16.76984 -41.46200 37155 ft 463 kts 37°
2026-04-29 13:09 -16.71799 -41.42214 37164 ft 463 kts 37°
2026-04-29 13:10 -16.66625 -41.38229 37156 ft 462 kts 38°
2026-04-29 13:10 -16.61463 -41.34223 37160 ft 462 kts 38°
2026-04-29 13:11 -16.56347 -41.30251 37147 ft 461 kts 37°
2026-04-29 13:11 -16.51202 -41.26262 37154 ft 460 kts 37°
2026-04-29 13:12 -16.46064 -41.22283 37153 ft 460 kts 38°
2026-04-29 13:12 -16.41758 -41.18951 37146 ft 460 kts 38°
2026-04-29 13:13 -16.36624 -41.14980 37146 ft 460 kts 37°
2026-04-29 13:13 -16.31489 -41.11011 37145 ft 459 kts 38°
2026-04-29 13:14 -16.26358 -41.07048 37145 ft 459 kts 38°
2026-04-29 13:14 -16.21230 -41.03089 37148 ft 459 kts 38°
2026-04-29 13:15 -16.16140 -40.99164 37145 ft 459 kts 38°
2026-04-29 13:15 -16.11015 -40.95213 37147 ft 459 kts 37°
2026-04-29 13:16 -16.05889 -40.91265 37147 ft 459 kts 37°
2026-04-29 13:16 -16.00763 -40.87319 37150 ft 459 kts 38°
2026-04-29 13:17 -15.95631 -40.83371 37148 ft 459 kts 38°
2026-04-29 13:17 -15.90503 -40.79429 37138 ft 459 kts 38°
2026-04-29 13:18 -15.85370 -40.75484 37144 ft 458 kts 38°
2026-04-29 13:18 -15.80246 -40.71550 37138 ft 458 kts 38°
2026-04-29 13:19 -15.75119 -40.67616 37150 ft 458 kts 38°
2026-04-29 13:19 -15.69997 -40.63688 37147 ft 458 kts 38°
2026-04-29 13:20 -15.64869 -40.59758 37139 ft 458 kts 38°
2026-04-29 13:20 -15.59748 -40.55836 37130 ft 458 kts 38°
2026-04-29 13:21 -15.54627 -40.51916 37137 ft 457 kts 38°
2026-04-29 13:21 -15.49515 -40.48006 37133 ft 457 kts 38°
2026-04-29 13:22 -15.44394 -40.44091 37126 ft 457 kts 38°
2026-04-29 13:22 -15.39312 -40.40209 37128 ft 457 kts 38°
2026-04-29 13:23 -15.34198 -40.36302 37119 ft 456 kts 38°
2026-04-29 13:23 -15.29089 -40.32404 37121 ft 456 kts 37°
2026-04-29 13:24 -15.23974 -40.28506 37120 ft 456 kts 37°
2026-04-29 13:24 -15.18863 -40.24614 37124 ft 456 kts 37°
2026-04-29 13:25 -15.13753 -40.20723 37122 ft 456 kts 37°
2026-04-29 13:25 -15.06079 -40.14884 37119 ft 457 kts 37°
2026-04-29 13:26 -15.00955 -40.10987 37113 ft 457 kts 37°
2026-04-29 13:26 -14.95829 -40.07092 37120 ft 457 kts 37°
2026-04-29 13:27 -14.90697 -40.03195 37116 ft 458 kts 37°
2026-04-29 13:27 -14.85564 -39.99299 37110 ft 458 kts 37°
2026-04-29 13:28 -14.80424 -39.95400 37111 ft 458 kts 37°
2026-04-29 13:28 -14.75277 -39.91498 37103 ft 459 kts 37°
2026-04-29 13:29 -14.74231 -39.90705 37104 ft 459 kts 37°